,,PA_Meas_PMT16A,,PR_Meas_QMR101_102,,RH_Meas_QMH101,,SR_Meas_QMS101,,TA_Meas_QMH101,,GenWind,,GenWind,
time,status,PA,status,PR,status,RH,status,SR,status,TA,status,DirAvg,status,SpdAvg,
2011-08-29, 00:00:04,VALID,918.437,VALID,0,VALID,93.2496,VALID,0,VALID,20.1303,VALID,358,VALID,0.316797,
2011-08-29, 00:01:04,VALID,918.43,VALID,0,VALID,93.3487,VALID,0,VALID,20.1318,VALID,358,VALID,0.346484,
2011-08-29, 00:02:04,VALID,918.408,VALID,0,VALID,93.4021,VALID,0,VALID,20.0913,VALID,358,VALID,0.374219,
2011-08-29, 00:03:04,VALID,918.378,VALID,0,VALID,93.4631,VALID,0,VALID,20.0913,VALID,358,VALID,0.249609,
2011-08-29, 00:04:04,VALID,918.395,VALID,0,VALID,93.4936,VALID,0,VALID,20.0523,VALID,358,VALID,0.379687,
2011-08-29, 00:05:04,VALID,918.365,VALID,0,VALID,93.5012,VALID,0,VALID,20.0733,VALID,358,VALID,0.261719,
2011-08-29, 00:06:04,VALID,918.379,VALID,0,VALID,93.5469,VALID,0,VALID,20.0718,VALID,358,VALID,0,
2011-08-29, 00:07:04,VALID,918.358,VALID,0,VALID,93.5698,VALID,0,VALID,20.0523,VALID,358,VALID,0.0808594,
2011-08-29, 00:08:04,VALID,918.388,VALID,0,VALID,93.4631,VALID,0,VALID,20.0523,VALID,358,VALID,0,
2011-08-29, 00:09:04,VALID,918.354,VALID,0,VALID,93.5088,VALID,0,VALID,20.1108,VALID,358,VALID,0.148438,
2011-08-29, 00:10:04,VALID,918.366,VALID,0,VALID,93.5546,VALID,0,VALID,20.0718,VALID,358,VALID,0.123438,
2011-08-29, 00:11:04,VALID,918.359,VALID,0,VALID,93.5012,VALID,0,VALID,20.0133,VALID,358,VALID,0.325391,
2011-08-29, 00:12:04,VALID,918.356,VALID,0,VALID,93.6155,VALID,0,VALID,19.9938,VALID,358,VALID,0.558203,
2011-08-29, 00:13:04,VALID,918.318,VALID,0,VALID,93.7985,VALID,0,VALID,20.0133,VALID,358,VALID,0.417578,
2011-08-29, 00:14:04,VALID,918.309,VALID,0,VALID,93.9129,VALID,0,VALID,20.0328,VALID,358,VALID,0.415625,
2011-08-29, 00:15:04,VALID,918.301,VALID,0,VALID,93.9967,VALID,0,VALID,19.9743,VALID,358,VALID,0.442969,
2011-08-29, 00:16:04,VALID,918.304,VALID,0,VALID,94.0577,VALID,0,VALID,19.9548,VALID,358,VALID,0.489062,
2011-08-29, 00:17:04,VALID,918.25,VALID,0,VALID,94.1034,VALID,0,VALID,19.9548,VALID,358,VALID,0.310547,
2011-08-29, 00:18:04,VALID,918.24,VALID,0,VALID,94.1492,VALID,0,VALID,19.9353,VALID,358,VALID,0,
2011-08-29, 00:19:04,VALID,918.219,VALID,0,VALID,94.1568,VALID,0,VALID,19.9743,VALID,358,VALID,0.183203,
2011-08-29, 00:20:04,VALID,918.263,VALID,0,VALID,94.1263,VALID,0,VALID,19.9743,VALID,358,VALID,0,
2011-08-29, 00:21:04,VALID,918.235,VALID,0,VALID,94.1644,VALID,0,VALID,19.9548,VALID,358,VALID,0,
2011-08-29, 00:22:04,VALID,918.25,VALID,0,VALID,94.1492,VALID,0.107441,VALID,19.9548,VALID,358,VALID,0,
2011-08-29, 00:23:04,VALID,918.23,VALID,0,VALID,94.2026,VALID,0,VALID,19.8963,VALID,358,VALID,0,
2011-08-29, 00:24:04,VALID,918.24,VALID,0,VALID,94.2254,VALID,0,VALID,19.9158,VALID,358,VALID,0.157422,
2011-08-29, 00:25:04,VALID,918.219,VALID,0,VALID,94.3169,VALID,0,VALID,19.9563,VALID,358,VALID,0.583984,
2011-08-29, 00:26:04,VALID,918.243,VALID,0,VALID,94.2102,VALID,0,VALID,19.9758,VALID,358,VALID,0.538672,
2011-08-29, 00:27:04,VALID,918.182,VALID,0,VALID,94.233,VALID,0,VALID,19.9758,VALID,358,VALID,0.304688,
2011-08-29, 00:28:04,VALID,918.224,VALID,0,VALID,94.3703,VALID,0,VALID,19.9548,VALID,358,VALID,0.198828,
2011-08-29, 00:29:04,VALID,918.21,VALID,0,VALID,94.2407,VALID,0,VALID,19.9953,VALID,358,VALID,0.223828,
2011-08-29, 00:30:04,VALID,918.221,VALID,0,VALID,94.0348,VALID,0,VALID,19.9758,VALID,358,VALID,0.181641,
2011-08-29, 00:31:04,VALID,918.234,VALID,0,VALID,93.9891,VALID,0,VALID,19.9158,VALID,358,VALID,0.210156,
2011-08-29, 00:32:04,VALID,918.235,VALID,0,VALID,94.0501,VALID,0,VALID,19.9173,VALID,358,VALID,0.458984,
2011-08-29, 00:33:04,VALID,918.236,VALID,0,VALID,94.2407,VALID,0,VALID,19.8783,VALID,358,VALID,0.453516,
2011-08-29, 00:34:04,VALID,918.241,VALID,0,VALID,94.3855,VALID,0,VALID,19.8993,VALID,358,VALID,0.445703,
2011-08-29, 00:35:04,VALID,918.218,VALID,0,VALID,94.4465,VALID,0,VALID,19.8588,VALID,358,VALID,0.399609,
2011-08-29, 00:36:04,VALID,918.221,VALID,0,VALID,94.538,VALID,0,VALID,19.8393,VALID,358,VALID,0.478906,
2011-08-29, 00:37:04,VALID,918.191,VALID,0,VALID,94.66,VALID,0,VALID,19.8378,VALID,358,VALID,0.39375,
2011-08-29, 00:38:04,VALID,918.171,VALID,0,VALID,94.6371,VALID,0.107441,VALID,19.8378,VALID,358,VALID,0.176172,
2011-08-29, 00:39:04,VALID,918.128,VALID,0,VALID,94.6676,VALID,0,VALID,19.8378,VALID,358,VALID,0,
2011-08-29, 00:40:04,VALID,918.113,VALID,0,VALID,94.6676,VALID,0,VALID,19.8183,VALID,358,VALID,0,
2011-08-29, 00:41:04,VALID,918.084,VALID,0,VALID,94.7896,VALID,0,VALID,19.8378,VALID,358,VALID,0,
2011-08-29, 00:42:04,VALID,918.055,VALID,0,VALID,94.7591,VALID,0,VALID,19.8573,VALID,358,VALID,0,
2011-08-29, 00:43:04,VALID,918.045,VALID,0,VALID,94.7057,VALID,0,VALID,19.8768,VALID,358,VALID,0,
2011-08-29, 00:44:04,VALID,918.033,VALID,0,VALID,94.5837,VALID,0.107441,VALID,19.8768,VALID,358,VALID,0,
2011-08-29, 00:45:04,VALID,918.025,VALID,0,VALID,94.5456,VALID,0.107441,VALID,19.8768,VALID,358,VALID,0.159766,
2011-08-29, 00:46:04,VALID,918.011,VALID,0,VALID,94.5532,VALID,0,VALID,19.8573,VALID,358,VALID,0.476563,
2011-08-29, 00:47:04,VALID,918.005,VALID,0,VALID,94.5304,VALID,0,VALID,19.8588,VALID,358,VALID,0.726953,
2011-08-29, 00:48:04,VALID,918.006,VALID,0,VALID,94.5075,VALID,0,VALID,19.7988,VALID,358,VALID,0.785156,
2011-08-29, 00:49:04,VALID,918.004,VALID,0,VALID,94.6066,VALID,0,VALID,19.7793,VALID,358,VALID,0.799219,
2011-08-29, 00:50:04,VALID,917.999,VALID,0,VALID,94.7057,VALID,0,VALID,19.7418,VALID,358,VALID,0.855469,
2011-08-29, 00:51:04,VALID,918.004,VALID,0,VALID,94.8505,VALID,0,VALID,19.6818,VALID,358,VALID,0.976953,
2011-08-29, 00:52:04,VALID,917.994,VALID,0,VALID,94.9649,VALID,0,VALID,19.6818,VALID,358,VALID,0.815234,
2011-08-29, 00:53:04,VALID,918.001,VALID,0,VALID,95.125,VALID,0,VALID,19.6833,VALID,358,VALID,0.532031,
2011-08-29, 00:54:04,VALID,918.011,VALID,0,VALID,95.2393,VALID,0,VALID,19.6233,VALID,358,VALID,0.592578,
2011-08-29, 00:55:04,VALID,918.001,VALID,0,VALID,95.3232,VALID,0,VALID,19.6233,VALID,358,VALID,0.654297,
2011-08-29, 00:56:04,VALID,917.995,VALID,0,VALID,95.3918,VALID,0,VALID,19.6248,VALID,358,VALID,0.776953,
2011-08-29, 00:57:04,VALID,917.956,VALID,0,VALID,95.4452,VALID,0,VALID,19.6233,VALID,358,VALID,0.942578,
2011-08-29, 00:58:04,VALID,917.957,VALID,0,VALID,95.5062,VALID,0,VALID,19.6038,VALID,358,VALID,0.791797,
2011-08-29, 00:59:04,VALID,917.925,VALID,0,VALID,95.5824,VALID,0,VALID,19.6053,VALID,358,VALID,0.625391,
2011-08-29, 01:00:04,VALID,917.925,VALID,0,VALID,95.5976,VALID,0,VALID,19.5843,VALID,358,VALID,0.471484,
2011-08-29, 01:01:04,VALID,917.871,VALID,0,VALID,95.6662,VALID,0,VALID,19.5843,VALID,358,VALID,0.548828,
2011-08-29, 01:02:04,VALID,917.86,VALID,0,VALID,95.6967,VALID,0,VALID,19.6053,VALID,358,VALID,0.640234,
2011-08-29, 01:03:04,VALID,917.829,VALID,0,VALID,95.7196,VALID,0,VALID,19.5858,VALID,358,VALID,0.645312,
2011-08-29, 01:04:04,VALID,917.804,VALID,0,VALID,95.7958,VALID,0,VALID,19.6053,VALID,358,VALID,0.623828,
2011-08-29, 01:05:04,VALID,917.802,VALID,0,VALID,95.834,VALID,0,VALID,19.6233,VALID,358,VALID,0.580469,
2011-08-29, 01:06:04,VALID,917.784,VALID,0,VALID,95.8416,VALID,0,VALID,19.5648,VALID,358,VALID,0.583984,
2011-08-29, 01:07:04,VALID,917.791,VALID,0,VALID,95.8873,VALID,0,VALID,19.5858,VALID,358,VALID,0.591016,
2011-08-29, 01:08:04,VALID,917.81,VALID,0,VALID,95.8873,VALID,0,VALID,19.5858,VALID,358,VALID,0.444922,
2011-08-29, 01:09:04,VALID,917.768,VALID,0,VALID,95.9178,VALID,0,VALID,19.5663,VALID,358,VALID,0.326172,
2011-08-29, 01:10:04,VALID,917.795,VALID,0,VALID,95.9559,VALID,0,VALID,19.5453,VALID,358,VALID,0.280469,
2011-08-29, 01:11:04,VALID,917.757,VALID,0,VALID,95.9636,VALID,0,VALID,19.5858,VALID,358,VALID,0.0496094,
2011-08-29, 01:12:04,VALID,917.775,VALID,0,VALID,95.9483,VALID,0,VALID,19.5843,VALID,358,VALID,0.303125,
2011-08-29, 01:13:04,VALID,917.777,VALID,0,VALID,95.9331,VALID,0,VALID,19.5843,VALID,358,VALID,0.425781,
2011-08-29, 01:14:04,VALID,917.767,VALID,0,VALID,95.895,VALID,0,VALID,19.6053,VALID,358,VALID,0.461328,
2011-08-29, 01:15:04,VALID,917.776,VALID,0,VALID,95.8568,VALID,0,VALID,19.5843,VALID,358,VALID,0.432813,
2011-08-29, 01:16:04,VALID,917.788,VALID,0,VALID,95.8492,VALID,0,VALID,19.6443,VALID,358,VALID,0.112109,
2011-08-29, 01:17:04,VALID,917.81,VALID,0,VALID,95.8645,VALID,0,VALID,19.6443,VALID,358,VALID,0.0753906,
2011-08-29, 01:18:04,VALID,917.787,VALID,0,VALID,95.8492,VALID,0,VALID,19.6833,VALID,358,VALID,0.217969,
2011-08-29, 01:19:04,VALID,917.772,VALID,0,VALID,95.7806,VALID,0,VALID,19.6818,VALID,358,VALID,0.129297,
2011-08-29, 01:20:04,VALID,917.781,VALID,0,VALID,95.7196,VALID,0,VALID,19.7403,VALID,358,VALID,0.0667969,
2011-08-29, 01:21:04,VALID,917.809,VALID,0,VALID,95.6281,VALID,0,VALID,19.7613,VALID,358,VALID,0.26875,
2011-08-29, 01:22:04,VALID,917.834,VALID,0,VALID,95.5138,VALID,0,VALID,19.7613,VALID,358,VALID,0.232812,
2011-08-29, 01:23:04,VALID,917.852,VALID,0,VALID,95.4299,VALID,0,VALID,19.7613,VALID,358,VALID,0.265234,
2011-08-29, 01:24:04,VALID,917.85,VALID,0,VALID,95.3461,VALID,0,VALID,19.7418,VALID,358,VALID,0.246875,
2011-08-29, 01:25:04,VALID,917.885,VALID,0,VALID,95.2698,VALID,0,VALID,19.7613,VALID,358,VALID,0.523047,
2011-08-29, 01:26:04,VALID,917.86,VALID,0,VALID,95.2088,VALID,0,VALID,19.7418,VALID,358,VALID,0.360156,
2011-08-29, 01:27:04,VALID,917.855,VALID,0,VALID,95.1707,VALID,0,VALID,19.7208,VALID,358,VALID,0.260547,
2011-08-29, 01:28:04,VALID,917.855,VALID,0,VALID,95.1631,VALID,0,VALID,19.7418,VALID,358,VALID,0.19375,
2011-08-29, 01:29:04,VALID,917.849,VALID,0,VALID,95.1707,VALID,0,VALID,19.7223,VALID,358,VALID,0.307422,
2011-08-29, 01:30:04,VALID,917.863,VALID,0,VALID,95.2317,VALID,0,VALID,19.7418,VALID,358,VALID,0.297266,
2011-08-29, 01:31:04,VALID,917.881,VALID,0,VALID,95.2775,VALID,0,VALID,19.7223,VALID,358,VALID,0.147656,
2011-08-29, 01:32:04,VALID,917.859,VALID,0,VALID,95.3003,VALID,0,VALID,19.7808,VALID,358,VALID,0.046875,
2011-08-29, 01:33:04,VALID,917.938,VALID,0,VALID,95.186,VALID,0,VALID,19.7613,VALID,358,VALID,0.467969,
2011-08-29, 01:34:04,VALID,917.911,VALID,0,VALID,95.2393,VALID,0,VALID,19.7418,VALID,358,VALID,0.0105469,
2011-08-29, 01:35:04,VALID,917.915,VALID,0,VALID,95.3003,VALID,0,VALID,19.7418,VALID,358,VALID,0.101172,
2011-08-29, 01:36:04,VALID,917.904,VALID,0,VALID,95.2851,VALID,0,VALID,19.7808,VALID,358,VALID,0,
2011-08-29, 01:37:04,VALID,917.9,VALID,0,VALID,95.3003,VALID,0,VALID,19.7808,VALID,358,VALID,0.41875,
2011-08-29, 01:38:04,VALID,917.905,VALID,0,VALID,95.125,VALID,0,VALID,19.7403,VALID,358,VALID,0.628516,
2011-08-29, 01:39:04,VALID,917.911,VALID,0,VALID,95.0411,VALID,0,VALID,19.7418,VALID,358,VALID,0.550391,
2011-08-29, 01:40:04,VALID,917.928,VALID,0,VALID,94.9725,VALID,0,VALID,19.7418,VALID,358,VALID,0.391406,
2011-08-29, 01:41:04,VALID,917.909,VALID,0,VALID,94.9801,VALID,0,VALID,19.7613,VALID,358,VALID,0.586719,
2011-08-29, 01:42:04,VALID,917.904,VALID,0,VALID,95.0183,VALID,0,VALID,19.7223,VALID,358,VALID,0.660547,
2011-08-29, 01:43:04,VALID,917.943,VALID,0,VALID,95.0564,VALID,0,VALID,19.7028,VALID,358,VALID,0.682031,
2011-08-29, 01:44:04,VALID,917.937,VALID,0,VALID,95.0716,VALID,0,VALID,19.6833,VALID,358,VALID,0.658984,
2011-08-29, 01:45:04,VALID,917.974,VALID,0,VALID,95.1326,VALID,0,VALID,19.6443,VALID,358,VALID,0.659375,
2011-08-29, 01:46:04,VALID,917.955,VALID,0,VALID,95.2317,VALID,0,VALID,19.6248,VALID,358,VALID,0.677734,
2011-08-29, 01:47:04,VALID,917.975,VALID,0,VALID,95.3079,VALID,0,VALID,19.6248,VALID,358,VALID,0.636328,
2011-08-29, 01:48:04,VALID,918.009,VALID,0,VALID,95.3689,VALID,0,VALID,19.6053,VALID,358,VALID,0.624219,
2011-08-29, 01:49:04,VALID,918.002,VALID,0,VALID,95.4223,VALID,0,VALID,19.6248,VALID,358,VALID,0.43125,
2011-08-29, 01:50:04,VALID,917.966,VALID,0,VALID,95.4604,VALID,0,VALID,19.6443,VALID,358,VALID,0.39375,
2011-08-29, 01:51:04,VALID,917.948,VALID,0,VALID,95.4375,VALID,0.107441,VALID,19.6248,VALID,358,VALID,0.268359,
2011-08-29, 01:52:04,VALID,917.915,VALID,0,VALID,95.4452,VALID,0,VALID,19.5843,VALID,358,VALID,0.507031,
2011-08-29, 01:53:04,VALID,917.894,VALID,0,VALID,95.4071,VALID,0,VALID,19.6248,VALID,358,VALID,0.136328,
2011-08-29, 01:54:04,VALID,917.837,VALID,0,VALID,95.3766,VALID,0,VALID,19.5858,VALID,358,VALID,0.4375,
2011-08-29, 01:55:04,VALID,917.871,VALID,0,VALID,95.3766,VALID,0,VALID,19.5858,VALID,358,VALID,0.0128906,
2011-08-29, 01:56:04,VALID,917.806,VALID,0,VALID,95.2012,VALID,0,VALID,19.6248,VALID,358,VALID,0.3625,
2011-08-29, 01:57:04,VALID,917.793,VALID,0,VALID,95.1479,VALID,0,VALID,19.6443,VALID,358,VALID,0.190625,
2011-08-29, 01:58:04,VALID,917.784,VALID,0,VALID,94.9878,VALID,0,VALID,19.6443,VALID,358,VALID,0.325391,
2011-08-29, 01:59:04,VALID,917.777,VALID,0,VALID,94.6981,VALID,0,VALID,19.6443,VALID,358,VALID,0.257031,
2011-08-29, 02:00:04,VALID,917.746,VALID,0,VALID,94.2635,VALID,0,VALID,19.6233,VALID,358,VALID,0.206641,
2011-08-29, 02:01:04,VALID,917.747,VALID,0,VALID,94.012,VALID,0,VALID,19.6638,VALID,358,VALID,0.234766,
2011-08-29, 02:02:04,VALID,917.749,VALID,0,VALID,92.8227,VALID,0,VALID,19.6623,VALID,358,VALID,0.646484,
2011-08-29, 02:03:04,VALID,917.749,VALID,0,VALID,92.6626,VALID,0,VALID,19.7418,VALID,358,VALID,0.0757812,
2011-08-29, 02:04:04,VALID,917.757,VALID,0,VALID,92.5635,VALID,0,VALID,19.7613,VALID,358,VALID,0.11875,
2011-08-29, 02:05:04,VALID,917.758,VALID,0,VALID,91.9384,VALID,0,VALID,19.7808,VALID,358,VALID,0,
2011-08-29, 02:06:04,VALID,917.752,VALID,0,VALID,91.6335,VALID,0,VALID,19.8003,VALID,358,VALID,0,
2011-08-29, 02:07:04,VALID,917.736,VALID,0,VALID,91.298,VALID,0,VALID,19.8003,VALID,358,VALID,0,
2011-08-29, 02:08:04,VALID,917.747,VALID,0,VALID,91.6335,VALID,0,VALID,19.8393,VALID,358,VALID,0,
2011-08-29, 02:09:04,VALID,917.743,VALID,0,VALID,91.824,VALID,0,VALID,19.8588,VALID,358,VALID,0,
2011-08-29, 02:10:04,VALID,917.732,VALID,0,VALID,91.9003,VALID,0,VALID,19.8783,VALID,358,VALID,0,
2011-08-29, 02:11:04,VALID,917.704,VALID,0,VALID,92.1137,VALID,0,VALID,19.8783,VALID,358,VALID,0,
2011-08-29, 02:12:04,VALID,917.716,VALID,0,VALID,92.3958,VALID,0,VALID,19.8978,VALID,358,VALID,0.241797,
2011-08-29, 02:13:04,VALID,917.733,VALID,0,VALID,92.2967,VALID,0,VALID,19.8783,VALID,358,VALID,0.0296875,
2011-08-29, 02:14:04,VALID,917.711,VALID,0,VALID,91.4581,VALID,0,VALID,19.8588,VALID,358,VALID,0,
2011-08-29, 02:15:04,VALID,917.719,VALID,0,VALID,91.0236,VALID,0,VALID,19.8588,VALID,358,VALID,0.0617188,
2011-08-29, 02:16:04,VALID,917.743,VALID,0,VALID,90.368,VALID,0,VALID,19.8393,VALID,358,VALID,0,
2011-08-29, 02:17:04,VALID,917.727,VALID,0,VALID,90.6653,VALID,0,VALID,19.8588,VALID,358,VALID,0,
2011-08-29, 02:18:04,VALID,917.74,VALID,0,VALID,91.2523,VALID,0,VALID,19.8978,VALID,358,VALID,0,
2011-08-29, 02:19:04,VALID,917.719,VALID,0,VALID,90.65,VALID,0,VALID,19.8783,VALID,358,VALID,0,
2011-08-29, 02:20:04,VALID,917.723,VALID,0,VALID,90.368,VALID,0,VALID,19.8783,VALID,358,VALID,0,
2011-08-29, 02:21:04,VALID,917.721,VALID,0,VALID,91.016,VALID,0,VALID,19.8768,VALID,358,VALID,0,
2011-08-29, 02:22:04,VALID,917.702,VALID,0,VALID,91.6716,VALID,0,VALID,19.9173,VALID,358,VALID,0.150781,
2011-08-29, 02:23:04,VALID,917.694,VALID,0,VALID,92.2433,VALID,0,VALID,19.9368,VALID,358,VALID,0.403516,
2011-08-29, 02:24:04,VALID,917.705,VALID,0,VALID,92.6321,VALID,0,VALID,19.8978,VALID,358,VALID,0.586719,
2011-08-29, 02:25:04,VALID,917.689,VALID,0,VALID,93.0209,VALID,0,VALID,19.8783,VALID,358,VALID,0.587109,
2011-08-29, 02:26:04,VALID,917.671,VALID,0,VALID,93.3259,VALID,0,VALID,19.8393,VALID,358,VALID,0.578516,
2011-08-29, 02:27:04,VALID,917.67,VALID,0,VALID,93.6308,VALID,0,VALID,19.8003,VALID,358,VALID,0.538281,
2011-08-29, 02:28:04,VALID,917.65,VALID,0,VALID,93.7604,VALID,0,VALID,19.7808,VALID,358,VALID,0.555078,
2011-08-29, 02:29:04,VALID,917.645,VALID,0,VALID,93.8747,VALID,0,VALID,19.7418,VALID,358,VALID,0.841797,
2011-08-29, 02:30:04,VALID,917.654,VALID,0,VALID,93.9129,VALID,0,VALID,19.7223,VALID,358,VALID,0.713672,
2011-08-29, 02:31:04,VALID,917.633,VALID,0,VALID,93.9052,VALID,0,VALID,19.7028,VALID,358,VALID,0.878516,
2011-08-29, 02:32:04,VALID,917.629,VALID,0,VALID,94.0348,VALID,0,VALID,19.6608,VALID,358,VALID,0.639453,
2011-08-29, 02:33:04,VALID,917.612,VALID,0,VALID,94.294,VALID,0,VALID,19.7223,VALID,196,VALID,0.959375,
2011-08-29, 02:34:04,VALID,917.587,VALID,0,VALID,94.538,VALID,0,VALID,19.7028,VALID,196,VALID,0.980078,
2011-08-29, 02:35:04,VALID,917.567,VALID,0,VALID,94.7209,VALID,0,VALID,19.6833,VALID,196,VALID,0.619141,
2011-08-29, 02:36:04,VALID,917.561,VALID,0,VALID,94.8963,VALID,0,VALID,19.6443,VALID,196,VALID,0.610937,
2011-08-29, 02:37:04,VALID,917.516,VALID,0,VALID,95.0335,VALID,0,VALID,19.6638,VALID,196,VALID,0.722656,
2011-08-29, 02:38:04,VALID,917.515,VALID,0,VALID,95.186,VALID,0,VALID,19.6248,VALID,196,VALID,0.635156,
2011-08-29, 02:39:04,VALID,917.508,VALID,0,VALID,95.3003,VALID,0,VALID,19.6038,VALID,196,VALID,0.383594,
2011-08-29, 02:40:04,VALID,917.477,VALID,0,VALID,95.3766,VALID,0,VALID,19.5858,VALID,196,VALID,0.60625,
2011-08-29, 02:41:04,VALID,917.489,VALID,0,VALID,95.468,VALID,0,VALID,19.5858,VALID,196,VALID,0.522266,
2011-08-29, 02:42:04,VALID,917.476,VALID,0,VALID,95.5519,VALID,0,VALID,19.5858,VALID,196,VALID,0.500391,
2011-08-29, 02:43:04,VALID,917.502,VALID,0,VALID,95.6129,VALID,0,VALID,19.5858,VALID,196,VALID,0.492578,
2011-08-29, 02:44:04,VALID,917.503,VALID,0,VALID,95.712,VALID,0,VALID,19.5663,VALID,196,VALID,0.849219,
2011-08-29, 02:45:04,VALID,917.495,VALID,0,VALID,95.7654,VALID,0,VALID,19.5468,VALID,196,VALID,0.564062,
2011-08-29, 02:46:04,VALID,917.517,VALID,0,VALID,95.8416,VALID,0,VALID,19.5273,VALID,196,VALID,0.835547,
2011-08-29, 02:47:04,VALID,917.489,VALID,0,VALID,95.9102,VALID,0,VALID,19.5078,VALID,196,VALID,0.859375,
2011-08-29, 02:48:04,VALID,917.499,VALID,0,VALID,95.9864,VALID,0,VALID,19.4883,VALID,196,VALID,0.596484,
2011-08-29, 02:49:04,VALID,917.485,VALID,0,VALID,96.0322,VALID,0,VALID,19.4688,VALID,196,VALID,0.874609,
2011-08-29, 02:50:04,VALID,917.481,VALID,0,VALID,96.0703,VALID,0,VALID,19.4688,VALID,196,VALID,0.675391,
2011-08-29, 02:51:04,VALID,917.479,VALID,0,VALID,96.1465,VALID,0,VALID,19.4493,VALID,196,VALID,0.237891,
2011-08-29, 02:52:04,VALID,917.453,VALID,0,VALID,96.1694,VALID,0,VALID,19.4493,VALID,196,VALID,0.729688,
2011-08-29, 02:53:04,VALID,917.428,VALID,0,VALID,96.2304,VALID,0,VALID,19.4493,VALID,196,VALID,0.544922,
2011-08-29, 02:54:04,VALID,917.405,VALID,0,VALID,96.238,VALID,0,VALID,19.4688,VALID,196,VALID,0.798047,
2011-08-29, 02:55:04,VALID,917.415,VALID,0,VALID,96.2761,VALID,0,VALID,19.4688,VALID,196,VALID,0.573047,
2011-08-29, 02:56:04,VALID,917.405,VALID,0,VALID,96.3295,VALID,0,VALID,19.4883,VALID,196,VALID,0.0347656,
2011-08-29, 02:57:04,VALID,917.4,VALID,0,VALID,96.3371,VALID,0,VALID,19.5078,VALID,196,VALID,0.713281,
2011-08-29, 02:58:04,VALID,917.383,VALID,0,VALID,96.2914,VALID,0,VALID,19.5078,VALID,196,VALID,1.18867,
2011-08-29, 02:59:04,VALID,917.366,VALID,0,VALID,96.3371,VALID,0,VALID,19.5078,VALID,196,VALID,0.782031,
2011-08-29, 03:00:04,VALID,917.382,VALID,0,VALID,96.299,VALID,0,VALID,19.5078,VALID,196,VALID,0.746484,
2011-08-29, 03:01:04,VALID,917.372,VALID,0,VALID,96.2761,VALID,0,VALID,19.4883,VALID,196,VALID,0.657422,
2011-08-29, 03:02:04,VALID,917.369,VALID,0,VALID,96.2685,VALID,0,VALID,19.4883,VALID,196,VALID,0.580859,
2011-08-29, 03:03:04,VALID,917.367,VALID,0,VALID,96.2685,VALID,0,VALID,19.5078,VALID,196,VALID,0.386719,
2011-08-29, 03:04:04,VALID,917.371,VALID,0,VALID,96.2609,VALID,0,VALID,19.5078,VALID,196,VALID,0.533984,
2011-08-29, 03:05:04,VALID,917.379,VALID,0,VALID,96.2456,VALID,0,VALID,19.5078,VALID,196,VALID,0.242188,
2011-08-29, 03:06:04,VALID,917.39,VALID,0,VALID,96.2304,VALID,0,VALID,19.5273,VALID,196,VALID,0.459766,
2011-08-29, 03:07:04,VALID,917.377,VALID,0,VALID,96.2075,VALID,0,VALID,19.5468,VALID,196,VALID,0.416406,
2011-08-29, 03:08:04,VALID,917.379,VALID,0,VALID,96.2075,VALID,0,VALID,19.5468,VALID,196,VALID,0.297656,
2011-08-29, 03:09:04,VALID,917.375,VALID,0,VALID,96.1846,VALID,0,VALID,19.5258,VALID,196,VALID,0.423828,
2011-08-29, 03:10:04,VALID,917.389,VALID,0,VALID,96.1389,VALID,0,VALID,19.5663,VALID,196,VALID,0.266797,
2011-08-29, 03:11:04,VALID,917.403,VALID,0,VALID,96.1008,VALID,0.107441,VALID,19.5468,VALID,196,VALID,0.329297,
2011-08-29, 03:12:04,VALID,917.383,VALID,0,VALID,96.1008,VALID,0,VALID,19.5663,VALID,196,VALID,0.342969,
2011-08-29, 03:13:04,VALID,917.377,VALID,0,VALID,96.0703,VALID,0,VALID,19.5858,VALID,196,VALID,0.0203125,
2011-08-29, 03:14:04,VALID,917.385,VALID,0,VALID,96.0322,VALID,0,VALID,19.5843,VALID,196,VALID,0.000390625,
2011-08-29, 03:15:04,VALID,917.378,VALID,0,VALID,95.9407,VALID,0,VALID,19.6053,VALID,196,VALID,0.0996094,
2011-08-29, 03:16:04,VALID,917.38,VALID,0,VALID,95.9178,VALID,0,VALID,19.5843,VALID,196,VALID,0.409766,
2011-08-29, 03:17:04,VALID,917.395,VALID,0,VALID,95.8492,VALID,0,VALID,19.6053,VALID,196,VALID,0.278906,
2011-08-29, 03:18:04,VALID,917.402,VALID,0,VALID,95.7958,VALID,0,VALID,19.6248,VALID,196,VALID,0.388672,
2011-08-29, 03:19:04,VALID,917.383,VALID,0,VALID,95.7577,VALID,0,VALID,19.6053,VALID,196,VALID,0.05625,
2011-08-29, 03:20:04,VALID,917.367,VALID,0,VALID,95.7272,VALID,0,VALID,19.6248,VALID,196,VALID,0.0414063,
2011-08-29, 03:21:04,VALID,917.39,VALID,0,VALID,95.712,VALID,0,VALID,19.6233,VALID,196,VALID,0.140234,
2011-08-29, 03:22:04,VALID,917.401,VALID,0,VALID,95.6815,VALID,0,VALID,19.6443,VALID,196,VALID,0,
2011-08-29, 03:23:04,VALID,917.397,VALID,0,VALID,95.6357,VALID,0,VALID,19.6443,VALID,196,VALID,0.0101562,
2011-08-29, 03:24:04,VALID,917.386,VALID,0,VALID,95.5824,VALID,0,VALID,19.6248,VALID,196,VALID,0,
2011-08-29, 03:25:04,VALID,917.388,VALID,0,VALID,95.5138,VALID,0,VALID,19.6443,VALID,196,VALID,0,
2011-08-29, 03:26:04,VALID,917.387,VALID,0,VALID,95.468,VALID,0,VALID,19.6428,VALID,196,VALID,0,
2011-08-29, 03:27:04,VALID,917.369,VALID,0,VALID,95.3842,VALID,0,VALID,19.6848,VALID,196,VALID,0,
2011-08-29, 03:28:04,VALID,917.387,VALID,0,VALID,95.3308,VALID,0,VALID,19.6833,VALID,196,VALID,0,
2011-08-29, 03:29:04,VALID,917.387,VALID,0,VALID,95.2622,VALID,0,VALID,19.7028,VALID,196,VALID,0.164453,
2011-08-29, 03:30:04,VALID,917.36,VALID,0,VALID,95.2088,VALID,0,VALID,19.7028,VALID,196,VALID,0.33125,
2011-08-29, 03:31:04,VALID,917.399,VALID,0,VALID,95.0792,VALID,0,VALID,19.7238,VALID,196,VALID,0.289844,
2011-08-29, 03:32:04,VALID,917.365,VALID,0,VALID,94.9649,VALID,0,VALID,19.6833,VALID,196,VALID,0.253906,
2011-08-29, 03:33:04,VALID,917.354,VALID,0,VALID,94.8887,VALID,0,VALID,19.6833,VALID,196,VALID,0.148047,
2011-08-29, 03:34:04,VALID,917.37,VALID,0,VALID,94.8353,VALID,0,VALID,19.6833,VALID,196,VALID,0.275,
2011-08-29, 03:35:04,VALID,917.343,VALID,0,VALID,94.6523,VALID,0,VALID,19.6638,VALID,196,VALID,0.222266,
2011-08-29, 03:36:04,VALID,917.312,VALID,0,VALID,94.4617,VALID,0,VALID,19.6833,VALID,196,VALID,0.383984,
2011-08-29, 03:37:04,VALID,917.255,VALID,0,VALID,94.3017,VALID,0,VALID,19.7028,VALID,196,VALID,0.296094,
2011-08-29, 03:38:04,VALID,917.268,VALID,0,VALID,94.1568,VALID,0,VALID,19.6818,VALID,196,VALID,0.378516,
2011-08-29, 03:39:04,VALID,917.279,VALID,0,VALID,93.8595,VALID,0,VALID,19.6818,VALID,196,VALID,0.380469,
2011-08-29, 03:40:04,VALID,917.275,VALID,0,VALID,93.5622,VALID,0,VALID,19.7223,VALID,196,VALID,0.261719,
2011-08-29, 03:41:04,VALID,917.304,VALID,0,VALID,93.4936,VALID,0,VALID,19.7613,VALID,196,VALID,0.175781,
2011-08-29, 03:42:04,VALID,917.286,VALID,0,VALID,93.5469,VALID,0,VALID,19.7418,VALID,196,VALID,0.728906,
2011-08-29, 03:43:04,VALID,917.307,VALID,0,VALID,93.7756,VALID,0,VALID,19.6833,VALID,196,VALID,0.875781,
2011-08-29, 03:44:04,VALID,917.297,VALID,0,VALID,94.012,VALID,0,VALID,19.6038,VALID,196,VALID,0.748828,
2011-08-29, 03:45:04,VALID,917.301,VALID,0,VALID,94.2026,VALID,0,VALID,19.5858,VALID,196,VALID,0.503906,